Regional Weather Roundup
Issued by NWS Sterling, VA

Home | Current Version | Previous Version | Text Only | Print | Product List | Glossary Off
Versions: 1 2 3 4 5 6 7 8 9 10 11 12 13 14 15 16 17 18 19 20 21 22 23 24 25 26 27 28

000
ASUS41 KLWX 260611
RWRLWX

REGIONAL WEATHER ROUNDUP
NATIONAL WEATHER SERVICE BALTIMORE MD/WASHINGTON DC
200 AM EDT WED APR 26 2017

Note: "FAIR" indicates few or no clouds below 12,000 feet
with no significant weather and/or obstructions to visibility.
 TC=TEMPERATURE CELSIUS

 * =Non NWS site. Station does not report precipitation (e.g. rain,
    snow, etc.), thunder, or fog.

DCZ001-MDZ009-015-VAZ040>042-051-053>054-260700-
WASHINGTON METRO

CITY           SKY/WX    TMP DP  RH WIND       PRES   REMARKS
WASHINGTON NAT CLOUDY    59  58  96 N8        29.71F
DULLES         DRIZZLE   57  55  93 N9        29.73F FOG
ANDREWS AFB    LGT RAIN  57  57  98 N7        29.70F
FT BELVOIR     LGT RAIN  58  56  93 NW6       29.70F
QUANTICO       CLOUDY    59  58  96 N8        29.72F
COLLEGE PARK*  CLOUDY    57  56  96 CALM      29.71S
LEESBURG*      LGT RAIN  57  57 100 N9        29.75S
MANASSAS*        N/A     57  56  96 N7        29.73F

$$

MDZ006>007-011-014-260700-
BALTIMORE METRO

CITY           SKY/WX    TMP DP  RH WIND       PRES   REMARKS
BWI AIRPORT    LGT RAIN  57  57 100 N5        29.71F
MD SCIENCE CTR   N/A     59  54  83 MISG      29.72F
MARTIN STATE   DRIZZLE   57  57 100 NW6       29.72F
ANNAPOLIS      CLOUDY    59  50  72 N9        29.69F
FORT MEADE*    CLOUDY    55  55 100 N3        29.73F

$$

MDZ012-015-019>023-260700-
MARYLAND EASTERN SHORE

CITY           SKY/WX    TMP DP  RH WIND       PRES   REMARKS
OCEAN CITY     FOG       56  55  97 E7        29.65R VSB 1/4
SALISBURY      CLOUDY    59  59 100 N8        29.63F FOG
BAY BRIDGE AP* CLOUDY    57  55  94 N7        29.70S FOG
CAMBRIDGE*     CLOUDY    59  57  94 N8G15     29.66F
EASTON*        LGT RAIN  58  56  92 N7        29.71F

$$

MDZ017>025-260700-
SOUTHERN MARYLAND

CITY           SKY/WX    TMP DP  RH WIND       PRES   REMARKS
PATUXENT RIVER CLOUDY    57  57 100 NW13      29.68S FOG
ST INIGOES     NOT AVBL
LEONARDTOWN*   CLOUDY    55  54  94 N5        29.70S

$$

MDZ003>005-260700-
NORTH CENTRAL MARYLAND

CITY           SKY/WX    TMP DP  RH WIND       PRES   REMARKS
FREDERICK*     NOT AVBL
HAGERSTOWN APT CLOUDY    56  55  97 N8        29.76S
WESTMINSTER*   CLOUDY    55  55 100 NE7       29.73F

$$

MDZ501>502-260700-
WESTERN MARYLAND

CITY           SKY/WX    TMP DP  RH WIND       PRES   REMARKS
OAKLAND*       FOG       46  46 100 SE3       29.79R VSB 1/4
CUMBERLAND*    CLOUDY    55  55 100 CALM      29.81F

$$

VAZ025>031-260700-
SHENANDOAH VALLEY

CITY           SKY/WX    TMP DP  RH WIND       PRES   REMARKS
WINCHESTER*    CLOUDY    54  54 100 N3        29.76F FOG
FRONT ROYAL*   CLOUDY    54  54 100 CALM      29.75F
LURAY*         CLOUDY    54  54 100 CALM      29.76F
NEW MARKET*    CLOUDY    54  53  97 CALM      29.76F
STAUNTON*      CLOUDY    53  52  96 CALM      29.78F
WAYNESBORO*    CLOUDY    52  52 100 W8        29.76F

$$

WVZ021-048>050-054>055-260700-
EASTERN WEST VIRGINIA PANHANDLE

CITY           SKY/WX    TMP DP  RH WIND       PRES   REMARKS
MARTINSBURG    CLOUDY    56  54  93 N7        29.75F
PETERSBURG*    CLOUDY    55  55  99 CALM      29.79F FOG

$$

VAZ036>039-050-260700-
CENTRAL FOOTHILLS

CITY           SKY/WX    TMP DP  RH WIND       PRES   REMARKS
CHARLOTTESVILL PTCLDY    55  53  93 W5        29.73F
CULPEPER*      CLOUDY    58  57  97 N5        29.74F
ORANGE*        CLOUDY    55  54  94 N3        29.74S
GORDONSVILLE*  CLOUDY    58  56  92 NE3       29.72F
WARRENTON*     CLOUDY    58  55  88 N5        29.73S

$$

VAZ055>057-260700-
NORTH AND CENTRAL PIEDMONT

CITY           SKY/WX    TMP DP  RH WIND       PRES   REMARKS
FREDERICKSBRG* CLOUDY    58  58 100 NW6       29.70F
STAFFORD*      CLOUDY    57  57 100 NW7       29.75F

$$

NCZ024-NYZ072-PAZ021-071-VAZ022-071-260700-
OTHER REGIONAL OBSERVATIONS

CITY           SKY/WX    TMP DP  RH WIND       PRES   REMARKS
NEW YORK CITY  CLOUDY    54  53  97 NE8G23    29.83F
PHILADELPHIA   CLOUDY    56  54  93 NE14      29.72S
PITTSBURGH     CLOUDY    54  54 100 CALM      29.78R
ROANOKE        CLOUDY    56  53  90 CALM      29.79S
RICHMOND       CLOUDY    59  58  96 NW10      29.70F
RALEIGH        MOCLDY    60  57  89 NW3       29.76S

$$

ANZ530>537-260700-
MARINE OBSERVATIONS

STATION/POSITION TIME  TEMP    WIND        PRES
                       AIR SEA DIR/SP/G
                 (UTC) (F)     (DEG/KT/KT) (MB)
THOMAS PT LIGHT  0600   57 56   10/ 16/ 18   N/A
BALT KEY BRIDGE  0548          350/  8/  9 1005.9F
COVE POINT       0548          350/ 17/ 21 1005.5F
LEWISETTA        0542      61  350/  9/ 13 1004.5R
SOLOMONS ISLAND  0548      60  340/  9/ 15   N/A
PINEY POINT      0548          360/ 11/ 13   N/A

$$





USA.gov is the U.S. government's official web portal to all federal, state and local government web resources and services.